Temp
18 19 19 19 19 19 19 20 20 20 20 20 20 20 21 21 22 21 21 22 23 23 23 23 23 23 23 20 20 17 17 18 22 23 23 22 22 23 21 22 21 22 23 23 23
18 19 19 19 19 19 19 19 19 19 19 20 20 20 20 21 21 19 22 22 22 23 23 22 21 21 18 21 19 17 16 20 21 22 22 22 22 22 22 20 21 21 21 22 22
18 18 18 18 18 18 18 18 18 18 19 19 19 20 20 20 20 22 22 22 22 22 22 22 22 21 21 20 20 18 19 19 21 21 21 22 21 20 21 21 20 21 18 17 15
17 17 17 16 16 16 16 16 17 18 18 19 19 20 20 20 22 22 22 23 22 22 22 22 21 21 20 21 20 21 20 21 22 20 21 22 21 20 19 20 17 16 15 13 11
15 15 15 14 15 15 15 16 16 17 18 18 19 19 20 19 19 21 22 22 22 21 21 20 20 19 20 20 21 20 20 20 19 18 19 19 19 20 19 18 17 13 12 10 9
13 14 14 14 15 15 15 16 16 17 17 18 19 19 19 19 20 21 21 21 21 21 21 20 20 20 20 20 20 20 20 19 18 19 19 20 20 20 21 17 15 12 9 8 8
13 13 14 14 15 15 15 16 16 17 17 18 18 18 17 18 20 20 20 20 20 20 20 20 21 21 20 20 20 20 19 17 18 19 19 17 20 19 19 16 14 10 8 8 7
13 13 14 14 15 15 15 16 16 17 17 17 18 17 17 19 18 19 19 19 19 20 20 20 21 19 20 19 17 19 18 18 20 19 20 20 19 20 19 16 13 9 7 7 7
12 13 13 14 14 14 15 16 17 17 16 16 16 16 17 18 18 18 19 19 19 19 20 20 20 17 17 16 16 15 17 16 18 19 20 20 19 19 17 15 11 8 8 8 6
12 13 13 13 13 14 14 15 15 15 15 15 15 17 17 18 18 18 18 19 17 17 18 17 13 14 13 15 16 16 16 16 17 20 19 19 17 17 18 18 11 8 7 6 6
12 13 13 13 13 13 14 15 14 14 14 16 17 18 17 16 17 17 18 18 17 16 16 15 15 15 15 15 17 18 16 17 17 18 19 17 16 16 16 13 9 7 7 6 6
12 12 13 13 13 13 13 13 16 16 16 15 15 16 17 18 16 16 17 17 17 16 14 14 14 16 16 15 16 16 17 15 16 16 16 16 16 16 15 13 11 8 7 6 5
12 13 13 13 13 13 13 15 16 15 14 15 15 15 16 17 16 15 16 15 16 14 13 14 17 16 16 15 15 15 14 15 16 17 16 16 14 16 11 9 8 7 6 6 5
12 13 13 12 12 13 14 15 15 15 13 15 15 16 16 15 16 15 15 16 16 15 13 14 15 17 15 16 15 15 15 15 16 16 15 15 14 15 13 9 8 6 5 5 4
12 13 13 12 13 13 15 15 15 15 14 16 15 15 15 15 14 14 15 16 14 14 14 16 16 15 15 15 16 16 16 15 16 14 14 15 13 13 12 11 8 6 5 4 4
13 13 13 12 12 13 14 15 15 14 14 15 14 14 15 15 14 13 14 15 15 15 15 14 15 16 16 15 15 15 16 13 11 12 12 13 14 14 13 14 8 6 5 4 3
12 13 12 12 13 13 14 14 15 14 17 15 14 13 14 13 13 13 13 13 13 13 13 15 15 16 16 17 15 15 14 13 12 11 13 12 12 14 13 10 9 7 5 4 4
13 13 13 13 13 14 13 14 13 16 14 15 14 13 14 13 14 12 12 13 13 14 12 14 15 14 14 15 15 13 14 13 13 11 12 12 12 14 8 6 7 7 5 4 3
13 12 12 12 13 13 13 13 15 15 15 14 15 14 14 14 14 13 12 12 13 12 16 13 14 15 14 15 16 14 13 14 12 4 8 13 13 10 7 6 5 5 4 4 3
12 12 12 12 12 11 13 15 15 15 15 15 15 15 13 14 14 12 12 13 15 12 15 15 14 15 14 15 14 14 13 12 10 11 9 12 12 13 8 7 6 5 5 4 4
12 11 11 12 10 12 14 14 13 14 15 15 15 14 14 13 13 12 13 14 13 13 14 13 14 13 14 13 13 13 13 13 12 10 11 9 13 11 10 8 7 6 5 4 4
10 13 9 10 12 12 14 13 14 14 14 15 14 15 14 13 12 12 13 14 12 12 13 13 11 9 12 12 11 13 12 12 13 12 8 10 13 9 11 8 7 6 6 4 4
10 9 8 9 13 12 11 12 13 13 13 13 13 14 13 13 14 12 12 13 12 13 12 12 10 7 12 13 11 11 11 11 10 8 9 11 12 8 8 8 7 7 5 5 4
8 9 9 9 9 12 11 12 12 12 12 12 13 13 13 13 13 13 11 12 11 12 13 13 11 12 13 12 11 11 10 9 10 8 12 12 11 8 9 8 8 7 6 5 4
6 8 8 9 9 11 12 11 12 11 12 12 10 12 13 12 11 11 12 11 10 10 11 12 10 9 10 10 10 10 10 8 9 9 9 10 9 9 8 7 6 6 6 4 4
6 7 6 8 10 10 11 10 12 12 11 11 11 12 12 12 12 10 11 10 11 9 10 8 7 7 7 8 9 9 8 8 9 8 7 8 8 10 7 6 5 5 4 4 3
3 3 6 6 8 10 10 10 11 11 8 10 11 10 10 11 10 8 9 9 10 8 8 7 5 6 10 6 6 6 5 7 8 8 8 8 9 1 5 5 4 3 4 4 3
Height
826 825 825 825 824 824 823 823 823 822 821 820 819 818 816 813 811 810 808 809 808 808 810 810 810 811 811 813 814 820 846 850 834 832 827 820 821 813 813 814 813 810 809 807 806
825 825 825 824 824 823 823 823 822 822 821 820 818 817 815 812 810 808 808 808 808 809 810 811 812 812 818 817 820 830 849 839 826 823 824 820 820 819 818 820 816 814 808 807 807
825 824 824 824 823 823 823 823 822 821 820 819 817 816 814 812 811 807 807 808 808 810 811 812 813 814 819 819 821 830 838 829 821 819 819 820 821 819 820 821 815 817 811 809 808
824 823 823 823 823 823 822 822 821 820 819 818 816 815 814 814 824 807 807 808 809 810 811 813 815 820 826 826 821 828 824 823 818 819 820 820 818 821 820 814 814 814 813 814 813
822 822 822 822 822 822 822 820 819 819 817 816 815 814 814 816 813 808 808 808 809 811 812 814 817 821 826 825 823 827 824 821 818 819 820 819 820 821 816 810 813 815 817 819 819
820 820 821 821 821 821 820 819 818 818 817 816 815 814 816 822 808 808 808 809 810 811 812 813 815 817 822 823 826 824 824 824 820 817 817 819 819 817 808 812 817 820 824 824 824
818 819 819 819 819 820 819 819 818 817 816 814 814 814 815 812 807 808 808 809 810 812 813 814 815 817 821 824 822 824 831 828 819 815 817 818 822 821 807 813 819 825 828 827 826
816 817 817 818 818 818 818 818 817 815 814 813 813 814 814 807 807 807 808 809 810 811 813 814 815 817 821 823 830 831 834 842 816 818 814 816 830 810 806 814 823 829 831 830 830
813 815 816 817 817 817 817 816 815 813 813 813 814 814 813 806 806 806 807 808 810 812 813 815 816 825 827 838 846 845 848 845 832 815 817 821 827 811 812 815 828 833 834 833 833
810 812 814 815 816 816 815 814 813 812 813 814 814 818 808 805 804 805 807 809 811 813 816 819 828 837 843 845 855 846 848 843 838 818 818 821 827 819 810 812 825 834 837 838 838
807 809 812 813 815 814 815 814 816 815 812 806 805 804 802 804 805 806 806 808 811 816 826 826 836 839 832 831 827 829 837 836 831 821 822 827 828 820 813 821 830 834 837 840 840
803 806 809 812 813 813 813 812 809 809 809 799 801 801 800 801 807 806 807 811 814 823 827 835 837 820 822 829 832 834 835 839 832 823 828 827 825 817 815 819 823 835 839 839 840
799 803 807 809 811 811 810 809 808 808 814 801 797 798 799 801 803 805 806 809 814 825 828 830 818 817 821 827 833 835 839 835 833 825 824 827 828 816 827 830 830 835 838 841 841
795 799 803 807 812 806 806 805 807 809 824 805 798 795 796 798 804 803 804 808 813 819 825 826 815 814 821 822 827 833 824 825 827 831 840 826 840 818 817 831 837 840 843 845 843
790 794 799 802 801 803 802 803 806 809 835 796 798 794 794 799 805 806 805 805 813 815 819 816 812 819 821 818 818 824 820 826 825 834 834 832 841 822 819 827 838 845 846 847 847
784 789 795 797 798 800 801 803 807 825 821 797 795 798 800 799 803 806 806 806 809 812 812 812 807 809 809 811 815 817 823 833 843 844 852 831 830 823 816 812 834 842 845 847 847
778 782 788 789 789 796 800 803 816 815 785 794 796 798 798 802 806 805 811 814 817 824 822 813 810 803 804 812 814 817 826 845 852 861 842 834 836 810 807 819 822 831 841 847 849
769 777 779 782 787 792 797 804 807 776 786 781 787 795 798 799 801 806 810 813 809 809 821 817 816 808 804 805 813 819 818 837 844 853 840 834 827 804 822 823 817 824 834 843 846
764 767 770 772 780 784 786 789 768 772 771 779 785 792 796 792 795 801 808 805 797 803 805 819 814 802 800 798 801 818 823 816 829 890 867 824 812 822 831 831 832 837 838 839 842
750 754 754 761 770 776 769 758 760 755 759 766 776 776 788 788 793 800 804 789 788 791 788 796 811 805 802 800 804 808 811 829 843 847 864 822 820 805 827 830 833 837 838 840 840
740 740 742 752 762 760 750 750 753 750 755 760 764 773 775 781 783 793 787 783 783 787 789 796 801 811 806 807 806 813 816 814 822 830 833 847 807 805 807 821 829 828 832 836 837
725 725 736 740 749 742 739 745 744 745 751 754 759 757 767 773 781 785 784 776 779 779 790 792 802 827 812 806 807 802 805 805 812 820 837 824 795 808 804 813 819 824 828 831 833
718 727 731 731 723 736 744 742 742 746 748 756 759 758 763 768 773 778 779 774 779 781 785 791 807 836 808 809 805 805 806 808 817 825 826 821 801 813 814 813 816 820 824 825 827
718 722 728 728 725 723 733 739 743 743 747 750 754 758 762 764 768 772 779 779 782 780 781 782 793 790 787 801 803 804 809 813 810 826 802 797 805 818 814 815 814 817 820 822 823
718 718 721 722 724 724 724 731 735 742 744 747 757 751 756 767 771 774 774 781 784 785 786 789 797 802 795 797 801 797 801 811 810 811 815 805 814 808 811 813 815 815 817 820 820
715 720 724 721 718 723 723 728 728 733 739 742 745 748 750 753 757 772 769 778 780 789 791 796 806 809 810 806 802 800 799 804 801 812 819 814 805 800 807 810 815 815 816 817 817
720 721 720 724 720 722 723 724 723 727 743 741 742 750 754 753 760 771 772 774 772 783 795 801 813 812 786 818 818 811 807 799 796 800 800 802 790 814 806 810 812 813 814 815 815
Wind_Speed
3 2 2 3 3 4 4 5 5 6 7 8 10 11 12 15 15 12 4 2 0 4 4 5 3 4 4 3 4 3 4 1 2 2 2 4 5 2 3 1 4 3 1 4 9
5 4 4 4 4 4 5 5 5 6 8 9 10 11 12 15 14 7 2 3 2 6 6 4 2 3 3 2 3 4 3 6 3 3 2 3 1 3 5 7 2 3 7 10 13
7 6 6 6 5 5 5 5 6 8 9 10 11 12 12 12 5 2 2 4 6 8 5 5 3 2 2 2 0 2 4 5 3 4 3 2 2 3 1 6 4 4 9 10 12
9 7 6 5 5 5 5 6 7 8 10 11 12 11 9 5 2 1 2 5 9 9 6 4 3 2 2 2 1 0 4 3 2 3 2 3 2 5 5 8 6 4 3 5 8
9 8 7 6 5 5 6 7 9 10 12 12 12 9 3 2 6 2 2 5 9 10 4 4 4 4 3 2 1 2 3 3 6 7 5 2 6 5 9 7 5 9 11 9 9
11 10 9 7 6 6 7 8 10 11 14 14 11 6 2 3 2 1 1 5 6 7 3 5 5 4 3 2 3 2 3 6 7 7 4 4 2 2 3 8 8 9 9 8 10
13 12 10 8 7 7 8 9 11 13 14 12 9 2 1 9 2 2 3 4 5 4 3 2 2 3 2 1 1 1 5 7 7 2 5 6 0 7 5 8 7 8 7 8 10
15 13 11 9 8 8 9 11 13 14 13 9 2 4 6 3 3 4 4 5 5 5 4 3 3 4 1 1 6 3 3 4 3 3 1 4 8 6 2 8 7 6 6 7 8
16 15 13 10 9 8 10 12 14 10 2 1 2 1 6 2 3 4 5 5 7 6 4 4 3 3 4 5 4 4 3 4 8 3 2 3 6 7 6 7 6 6 6 6 7
17 16 14 11 9 8 10 12 8 2 2 1 1 2 1 3 4 5 5 9 4 5 4 5 5 3 3 4 5 5 4 4 6 2 2 3 8 8 6 3 7 7 6 6 7
19 17 14 11 9 9 8 5 2 2 3 8 4 3 3 4 4 3 5 7 4 5 4 2 4 7 13 11 3 4 4 5 4 4 1 7 6 12 4 4 6 7 7 7 7
20 18 14 12 11 9 8 3 3 1 5 9 5 5 3 7 3 3 9 5 4 5 5 4 7 13 4 5 6 2 1 7 5 4 6 7 8 10 4 2 3 9 6 7 6
22 19 17 13 13 11 9 6 2 1 1 6 5 4 3 8 4 7 9 4 4 6 8 8 6 4 6 5 6 4 7 3 6 4 3 4 6 7 3 5 9 7 7 6 7
24 22 18 14 6 8 5 11 5 3 2 6 5 4 4 6 3 1 6 4 2 10 7 6 5 4 3 5 7 5 8 8 7 3 5 3 5 5 5 4 4 6 6 6 6
26 25 22 21 3 6 4 13 8 3 5 2 3 2 2 5 6 1 0 2 7 7 7 7 4 4 5 8 6 6 2 5 2 2 2 3 2 6 5 3 5 5 6 6 5
30 28 24 22 18 5 13 14 5 4 9 3 4 5 5 2 2 2 2 3 1 3 1 6 1 4 7 3 6 4 4 6 4 2 1 9 8 3 4 2 5 5 6 7 7
33 31 32 28 10 18 18 7 3 7 1 6 5 5 4 5 4 5 5 5 6 5 5 2 5 3 3 3 2 3 6 2 3 2 6 1 2 7 1 2 6 14 10 7 5
34 34 36 35 25 25 16 2 11 9 10 4 5 4 8 7 4 6 6 4 6 1 3 5 4 9 5 8 7 7 8 6 7 3 4 1 6 5 1 2 6 13 11 7 7
37 38 31 35 35 36 8 8 9 7 7 10 3 5 5 5 5 4 8 6 8 11 7 5 5 1 4 4 5 5 4 4 5 3 2 4 4 0 2 5 6 7 7 9 8
36 27 32 36 41 27 10 19 9 6 7 6 12 8 10 8 8 8 9 5 5 10 4 4 3 2 2 3 2 3 5 3 2 2 4 4 6 5 7 7 7 8 10 7 7
27 6 13 36 36 10 11 8 5 6 5 6 10 7 7 8 9 7 7 2 7 6 6 6 5 2 1 5 8 2 2 3 3 4 5 2 7 4 7 9 13 12 9 9 10
8 9 23 45 10 4 15 7 5 7 4 3 3 3 8 9 8 7 10 6 8 9 9 6 5 4 8 2 2 2 6 7 6 7 3 2 12 3 3 8 9 9 9 8 8
4 3 12 12 13 8 2 4 6 6 6 6 6 4 3 7 3 6 6 1 6 7 9 7 2 1 4 2 2 3 3 3 4 3 6 5 7 3 5 5 7 8 9 8 8
2 4 2 2 1 13 9 6 7 3 5 5 4 5 5 4 2 4 6 2 2 1 2 6 5 7 13 6 4 4 5 5 5 3 7 15 8 3 4 6 5 6 6 8 7
2 2 2 5 6 9 12 11 12 8 6 8 4 7 8 7 6 7 4 1 3 3 3 3 6 4 4 5 5 6 6 8 7 5 8 4 7 7 9 11 9 7 7 6 8
3 2 0 1 7 9 12 10 19 13 9 7 11 10 9 10 6 6 6 4 5 2 4 0 3 3 2 4 5 8 9 9 12 10 9 14 19 12 3 5 4 8 7 6 7
1 3 1 1 1 12 9 12 14 12 1 3 9 6 8 13 8 2 1 3 5 9 7 5 5 3 10 2 4 9 10 14 10 9 8 13 16 2 5 7 7 7 6 7 7
Wind_Direction
253 262 281 295 308 317 323 329 334 337 335 333 329 330 328 322 323 317 279 238 62 181 163 140 92 40 39 59 55 117 61 180 220 138 286 342 16 301 275 269 341 299 245 284 327
248 259 270 277 287 297 309 314 322 331 334 332 327 326 328 327 327 290 224 187 148 162 153 133 71 43 33 31 21 83 109 213 217 188 234 298 254 328 356 335 317 319 313 338 343
251 257 266 275 283 297 302 320 328 332 334 328 323 322 325 330 345 276 171 185 162 160 146 115 82 69 69 27 206 158 187 194 238 202 200 230 266 196 244 315 225 307 292 347 32
253 257 264 278 289 302 312 322 323 323 325 325 321 318 321 334 302 6 172 170 165 162 142 142 72 96 111 219 193 1 243 232 250 169 314 285 338 296 199 238 62 359 358 57 46
248 251 254 258 267 282 305 314 322 316 319 318 314 313 318 360 258 325 210 190 176 181 171 138 149 141 175 208 54 199 293 279 274 279 244 320 262 240 264 266 96 73 54 47 38
245 247 250 254 266 282 298 310 314 313 316 314 309 303 134 236 249 255 193 177 184 183 167 152 194 191 156 204 162 200 278 285 285 272 259 216 254 134 316 98 77 65 53 45 37
246 247 247 252 259 274 289 300 305 307 309 307 307 219 145 243 231 178 174 175 174 184 136 179 196 109 113 339 6 340 332 327 259 276 223 153 276 230 210 86 76 68 56 43 33
245 245 244 248 258 273 287 297 303 305 303 312 283 161 240 254 203 187 161 130 139 133 122 131 144 110 98 98 19 12 47 349 285 163 235 146 262 257 354 117 105 95 67 55 32
241 241 241 243 254 271 286 299 306 298 274 59 99 148 266 185 193 186 177 151 129 112 100 107 76 83 40 91 4 4 240 220 313 208 129 156 258 274 93 105 127 120 86 64 37
236 235 236 240 253 273 293 304 303 288 199 180 108 15 219 216 159 156 149 142 109 98 48 56 54 80 46 107 227 205 212 237 244 269 155 202 258 285 293 138 152 126 103 70 47
232 230 229 235 252 275 297 305 304 279 203 195 197 221 133 130 131 136 148 116 92 63 145 20 115 210 203 202 170 161 187 213 250 257 234 244 245 268 253 100 144 145 111 84 61
230 225 219 226 248 260 283 230 234 144 302 232 241 276 190 173 122 204 165 135 145 165 118 58 220 231 139 179 216 216 279 261 287 273 175 271 269 266 4 63 212 136 122 111 95
225 216 214 225 243 257 232 237 212 112 266 290 196 189 196 171 215 204 156 146 152 150 191 175 213 152 167 170 173 206 212 224 226 323 291 332 289 249 75 78 83 91 114 105 108
218 209 211 213 247 216 215 215 182 145 355 256 216 231 132 137 218 96 177 142 185 200 159 231 255 197 169 213 145 215 202 213 227 141 231 141 276 289 170 115 90 117 122 128 118
212 209 208 204 185 188 197 167 160 118 286 215 169 133 137 159 133 324 290 46 176 182 136 237 187 169 181 218 165 235 128 175 204 178 65 286 320 256 116 211 173 164 148 139 132
211 209 207 205 222 219 166 152 132 66 243 206 138 165 132 147 132 121 109 45 147 151 225 221 290 184 200 109 162 132 87 46 51 62 292 222 191 256 186 168 139 163 161 163 160
213 209 208 203 204 200 165 146 154 216 0 193 187 165 181 166 174 155 159 174 164 135 221 213 226 211 145 115 99 115 97 328 333 344 236 15 140 247 16 24 189 174 169 177 166
210 212 214 212 205 186 166 139 211 181 199 125 134 113 181 159 214 170 138 195 234 231 113 174 276 172 191 193 191 181 161 163 217 212 256 269 241 256 306 333 131 152 156 156 175
212 215 211 207 205 183 173 201 217 170 171 149 91 152 219 210 155 153 193 199 203 180 178 164 273 147 172 156 152 198 187 171 107 61 22 233 295 291 44 60 97 123 146 182 188
207 212 216 199 199 180 202 218 210 187 140 146 179 175 181 191 164 180 180 202 207 188 166 179 292 269 183 111 42 180 162 73 8 239 245 262 274 232 220 197 166 173 200 192 186
204 188 187 191 178 190 215 218 174 196 156 172 191 166 192 175 185 190 196 240 189 168 148 150 155 263 152 210 175 129 211 101 156 162 196 239 261 230 211 172 186 201 201 197 201
171 210 168 162 193 200 210 178 180 166 156 223 170 134 179 186 177 196 204 220 173 147 161 193 141 173 213 292 317 274 208 169 208 238 250 153 258 15 80 177 180 199 204 210 214
165 122 176 173 199 192 137 160 193 145 152 165 193 181 184 171 172 182 185 355 160 155 161 186 184 39 326 296 37 231 222 155 101 61 203 221 256 38 25 146 191 195 208 212 217
131 130 168 210 8 181 168 180 183 202 167 150 172 145 137 158 247 168 200 97 64 39 13 172 173 179 232 209 149 176 197 187 160 190 244 242 269 194 232 217 220 226 225 227 225
3 161 207 188 182 179 172 176 194 185 197 157 199 198 174 197 182 185 165 123 51 63 85 189 224 164 211 192 175 197 191 171 196 195 203 187 235 246 212 220 222 218 234 235 241
133 148 76 359 175 182 184 191 189 188 161 195 214 195 183 208 171 186 153 145 203 103 158 303 212 113 275 219 202 239 236 201 222 241 245 243 262 259 207 228 209 223 215 217 239
166 113 91 116 102 192 205 196 195 159 346 113 194 176 200 218 217 150 122 133 173 159 171 146 132 134 239 75 54 279 214 212 216 213 219 235 246 154 204 199 216 223 204 214 215